Hourly Weather Roundup
Issued by NWS Central Illinois

Home | Current Version | Previous Version | Text Only | Print | Product List | Glossary On
Versions: 1 2 3 4 5 6 7 8 9 10 11 12 13 14 15 16 17 18 19 20 21 22 23 24 25 26 27 28 29 30 31 32 33 34 35 36 37 38 39 40 41 42 43 44 45 46 47 48 49 50
000
NZUS43 KILX 261810
HWRILX

AREA WEATHER ROUNDUP
NATIONAL WEATHER SERVICE, LINCOLN IL
1200 PM CST THU FEB 26 2015


CITY           SKY/WX    TMP DP  RH WIND       PRES   REMARKS
BLOOMINGTON    LGT SNOW  18  14  84 N16       30.23R FOG     WCI   3
6HR MIN TEMP:  15; 6HR MAX TEMP:  18; 6HR PCP: TRACE;

CHAMPAIGN      LGT SNOW  21  14  74 N14       30.19R WCI   8
6HR MIN TEMP:  19; 6HR MAX TEMP:  21; 6HR PCP: TRACE;

DECATUR        CLOUDY    21  14  74 N16       30.22R WCI   7
6HR MIN TEMP:  19; 6HR MAX TEMP:  21; 6HR PCP: TRACE;

FLORA          PTSUNNY   25  17  73 N16G22    30.18R WCI  12
6HR MIN TEMP:  24; 6HR MAX TEMP:  26;

GALESBURG      CLOUDY    15   8  73 N12       30.31S WCI   2
JACKSONVILLE   LGT SNOW  20  13  73 NW15      30.28R WCI   7
6HR MIN TEMP:  18; 6HR MAX TEMP:  21;

LACON          MOSUNNY   17   7  65 N8        30.29R WCI   7
6HR MIN TEMP:  14; 6HR MAX TEMP:  17;

LAWRENCEVILLE  CLOUDY    27  17  66 N12       30.16R WCI  17
LITCHFIELD     PTSUNNY   19  13  78 NW17      30.23S HAZE    WCI   4
$$


CITY           SKY/WX    TMP DP  RH WIND       PRES   REMARKS
LINCOLN        LGT SNOW  22  15  73 N12       30.27S WCI  11
6HR MIN TEMP:  19; 6HR MAX TEMP:  22;

MACOMB         LGT SNOW  15   9  76 NW17      30.33S WCI  -1
MATTOON        PTSUNNY   22  15  75 N16       30.17R WCI   8
6HR MIN TEMP:  19; 6HR MAX TEMP:  22; 6HR PCP: TRACE;

MT CARMEL AP   FLURRIES  30  19  64 N13       30.14S WCI  20
OLNEY-NOBLE AP CLOUDY    27  18  69 N13       30.17R WCI  16
PARIS          CLOUDY    23  15  72 N8        30.18R WCI  14
6HR MIN TEMP:  20; 6HR MAX TEMP:  23;

PEORIA         MIX PCPN  19   8  62 N9G18     30.28R WCI   8
6HR MIN TEMP:  15; 6HR MAX TEMP:  19; 6HR PCP: TRACE;

PONTIAC        MIX PCPN  18  13  80 N15       30.25R WCI   4
RANTOUL        LGT SNOW  22  15  74 N13       30.20R WCI  10
6HR MIN TEMP:  20; 6HR MAX TEMP:  22;

ROBINSON       CLOUDY    26  17  69 N13       30.16S WCI  15
6HR MIN TEMP:  22; 6HR MAX TEMP:  26;

SPRINGFIELD    LGT SNOW  20  12  71 N16       30.26R WCI   6
6HR MIN TEMP:  18; 6HR MAX TEMP:  20; 6HR PCP: TRACE;

TAYLORVILLE    CLOUDY    19  14  79 N18       30.24R HAZE    WCI   4
$$

...REGIONAL REPORTS...


CITY           SKY/WX    TMP DP  RH WIND       PRES   REMARKS
CHICAGO O`HARE LGT SNOW  17   9  70 N12       30.24R WCI   4
KANKAKEE       LGT SNOW  19  13  77 N8        30.23R WCI   9
MOLINE         SUNNY     14   2  58 NW12      30.33R WCI   0
MOUNT VERNON   CLOUDY    27  18  69 N12       30.17S WCI  16
PITTSFIELD     SUNNY     19  10  70 NW13G18   30.30S WCI   5
QUINCY         MOSUNNY   15   5  64 NW17      30.32R WCI  -1
ROCKFORD       PTSUNNY   13  -1  54 N13       30.30R WCI  -2
$$


CITY           SKY/WX    TMP DP  RH WIND       PRES   REMARKS
BURLINGTON     SUNNY     13   1  59 N13       30.34R WCI  -2
CEDAR RAPIDS   SUNNY      7  -3  64 NW13      30.36R WCI  -9
DES MOINES     SUNNY      9  -5  53 N14       30.45R WCI  -7
KIRKSVILLE     SUNNY     15   0  51 NW17G26   30.37R WCI  -1
OTTUMWA        SUNNY      8  -2  63 NW18      30.40R WCI -11
ST LOUIS       LGT SNOW  22  14  71 NW14      30.26R WCI   9
$$


CITY           SKY/WX    TMP DP  RH WIND       PRES   REMARKS
TERRE HAUTE    CLOUDY    23  12  62 NE10      30.16R WCI  12
EVANSVILLE     CLOUDY    30  21  69 N14       30.12S WCI  19
INDIANAPOLIS   PTSUNNY   20  10  65 N8        30.12R WCI  10
LAFAYETTE      CLOUDY    19  12  74 N10       30.18R WCI   7
MADISON        MOSUNNY   10  -5  50 N12       30.31S WCI  -5
MILWAUKEE      PTSUNNY   14   0  53 NE14      30.27R WCI  -1
$$




USA.gov is the U.S. government's official web portal to all federal, state and local government web resources and services.